EW5799 Weather Reports


time (UTC)temp
C
wind
direction
speed
KPH
gust
KPH
rain 1hr
cm
rain 24hr
cm
rain mn
cm
humidity
%
barometer
mb
20260506181537 26 138 9.7 17.7 0.00 0.00 0.00 90 1009.4
20260506180035 27 157 9.7 16.1 0.00 0.00 0.00 90 1009.6
20260506174527 26 147 8.0 14.5 0.00 0.00 0.00 90 1009.4
20260506173024 26 127 9.7 16.1 0.00 0.00 0.00 91 1009.7
20260506171530 26 144 8.0 12.9 0.00 0.00 0.00 91 1009.9
20260506170020 26 136 8.0 16.1 0.00 0.00 0.00 91 1010.0
20260506164516 26 155 4.8 12.9 0.00 0.00 0.00 92 1010.0
20260506163014 26 146 9.7 14.5 0.00 0.00 0.00 93 1009.9
20260506161511 25 146 9.7 17.7 0.00 0.00 0.00 94 1009.8
20260506160008 25 172 6.4 14.5 0.00 0.00 0.00 95 1009.8
20260506154504 25 146 4.8 11.3 0.00 0.00 0.00 95 1009.5
20260506153002 25 143 4.8 9.7 0.00 0.00 0.00 95 1009.3
20260506151501 25 136 6.4 16.1 0.00 0.00 0.00 95 1009.2
20260506150100 25 132 8.0 11.3 0.00 0.00 0.00 96 1008.9
20260506144606 25 124 6.4 11.3 0.00 0.00 0.00 96 1008.8
20260506143102 25 154 4.8 11.3 0.00 0.00 0.00 95 1008.8
20260506141553 25 141 6.4 11.3 0.00 0.00 0.00 96 1008.9
20260506140020 25 119 4.8 9.7 0.00 0.00 0.00 96 1009.0
20260506134520 25 139 4.8 11.3 0.00 0.00 0.00 96 1009.0
20260506133050 25 127 4.8 11.3 0.00 0.00 0.00 97 1009.1
20260506131548 24 119 3.2 6.4 0.00 0.00 0.00 97 1009.1
20260506130052 24 128 4.8 8.0 0.00 0.00 0.00 97 1009.0
20260506124542 -17 0.0 0.0 0.00 0.00 0.00 1009.0
20260506123039 -17 0.0 0.0 0.00 0.00 0.00 1008.8
20260506121532 -17 0.0 0.0 0.00 0.00 0.00 1008.7
20260506120023 -17 0.0 0.0 0.00 0.00 0.00 1008.5
20260506114513 -17 0.0 0.0 0.00 0.00 0.00 1008.3
20260506113016 -17 0.0 0.0 0.00 0.00 0.00 1008.0
20260506111505 -17 0.0 0.0 0.00 0.00 0.00 1007.9
20260506110005 -17 0.0 0.0 0.00 0.00 0.00 1007.9
20260506104601 -17 0.0 0.0 0.00 0.00 0.00 1008.1
20260506103056 -17 0.0 0.0 0.00 0.00 0.00 1008.0
20260506101551 -17 146 6.4 9.7 0.00 0.00 0.00 97 1007.8
20260506100051 24 154 6.4 9.7 0.00 0.00 0.00 97 1007.7
20260506094550 24 133 6.4 11.3 0.00 0.00 0.00 96 1007.7
20260506093048 24 145 4.8 9.7 0.00 0.00 0.00 96 1007.8
20260506091548 24 149 4.8 9.7 0.00 0.00 0.00 96 1007.8
20260506090038 24 143 6.4 9.7 0.00 0.00 0.00 96 1007.9
20260506084524 24 126 6.4 11.3 0.00 0.00 0.00 96 1008.0
20260506083021 24 141 6.4 11.3 0.00 0.00 0.00 96 1008.2
20260506081519 24 150 6.4 9.7 0.00 0.00 0.00 95 1008.1
20260506073015 24 137 8.0 12.9 0.00 0.00 0.00 95 1008.7
20260506071514 25 169 9.7 14.5 0.00 0.00 0.00 95 1008.8
20260506061509 25 170 11.3 19.3 0.00 0.00 0.00 94 1008.7
20260506044501 25 181 12.9 22.5 0.00 0.00 0.00 94 1008.8
20260506043105 25 181 16.1 24.1 0.00 0.00 0.00 94 1008.7
20260506041557 25 165 11.3 20.9 0.00 0.00 0.00 94 1008.8
20260506040105 25 178 12.9 22.5 0.00 0.00 0.00 94 1008.7
20260506034604 25 154 12.9 20.9 0.00 0.00 0.00 94 1008.7
20260506033053 25 164 14.5 24.1 0.00 0.00 0.00 94 1008.5
20260506031551 25 143 12.9 19.3 0.00 0.00 0.00 94 1008.4
20260506030052 25 145 8.0 17.7 0.00 0.00 0.00 94 1008.4
20260506024552 25 149 12.9 16.1 0.00 0.00 0.00 94 1008.2
20260506023039 25 155 11.3 17.7 0.00 0.00 0.00 94 1007.9
20260506021538 25 145 9.7 14.5 0.00 0.00 0.00 94 1007.8
20260506020031 25 150 11.3 17.7 0.00 0.00 0.00 93 1007.5
20260506014531 25 173 9.7 16.1 0.00 0.00 0.00 93 1007.3
20260506013028 25 154 9.7 20.9 0.00 0.00 0.00 92 1007.2
20260506011525 25 191 12.9 20.9 0.00 0.00 0.00 92 1007.0
20260506010025 25 169 12.9 20.9 0.00 0.00 0.00 92 1006.8
20260506004524 25 162 11.3 22.5 0.00 0.00 0.00 91 1006.6
20260506003024 25 148 16.1 25.7 0.00 0.00 0.00 91 1006.6
20260506001521 25 164 16.1 25.7 0.00 0.00 0.00 90 1006.4
20260506000020 25 141 19.3 24.1 0.00 0.00 0.00 90 1006.6
20260505234522 25 175 16.1 25.7 0.00 0.00 0.00 90 1006.5
20260505233019 26 168 17.7 25.7 0.00 0.00 0.00 89 1006.6
20260505231603 26 148 16.1 35.4 0.00 0.00 0.00 88 1006.6
20260505230051 26 201 19.3 27.4 0.00 0.00 0.00 87 1006.6
20260505224544 26 187 17.7 35.4 0.00 0.00 0.00 87 1006.5
20260505223042 26 159 17.7 29.0 0.00 0.00 0.00 88 1006.7
20260505221542 26 143 12.9 30.6 0.00 0.00 0.00 89 1006.8
20260505220042 26 162 16.1 29.0 0.00 0.00 0.00 88 1006.8
20260505214551 26 183 17.7 32.2 0.00 0.00 0.00 88 1007.1
20260505213031 26 157 20.9 30.6 0.00 0.00 0.00 88 1007.1
20260505211533 26 186 19.3 33.8 0.00 0.00 0.00 88 1007.2
20260505210029 26 208 25.7 32.2 0.00 0.00 0.00 87 1007.2
20260505204527 26 190 24.1 29.0 0.00 0.00 0.00 87 1007.5
20260505203025 26 173 19.3 33.8 0.00 0.00 0.00 88 1007.9
20260505201521 26 194 24.1 35.4 0.00 0.00 0.00 87 1008.0
20260505200020 26 168 17.7 30.6 0.00 0.00 0.00 87 1008.1
20260505194519 26 213 19.3 30.6 0.00 0.00 0.00 87 1008.3
20260505193018 26 195 17.7 27.4 0.00 0.00 0.00 87 1008.2
20260505191518 26 210 12.9 27.4 0.00 0.00 0.00 88 1008.5
20260505190019 26 197 11.3 22.5 0.00 0.00 0.00 89 1008.5
20260505184512 26 199 17.7 27.4 0.00 0.00 0.00 89 1008.5
20260505183010 25 140 14.5 32.2 0.00 0.00 0.00 89 1008.7